Brouillard Valable du: 22-02-2019 12:59 Au: 13:59 Avertissement pour: Brouillard Niveau: Jaune info button
nederlands:
Na de middag is er vooral in het noordwesten kans op mist die soms het zicht beperkt tot minder dan 500 m en plaatselijk zelfs tot 100 m.

français:
Apres midi, encore un risque de brouillard surtout sur le nord-ouest du pays, avec des visibilites parfois limitees a moins de 500 m et localement 100 m. 



Thunder radar more information blitzortung!


Rain radar more information rain snow radar


Visitez nos sites météorologiques autres:

Template documentation
and downloads

And another site



Weather Underground Historique Text

par jour Résumé pour février 22, 2019 Les unités:  métriques    impériales   les deux
« Précédente Jour
Suivant Jour »
par jour Par semaine mensuel Annuel personnalisé
  actuel: élevé: Basse: Moyenne:
Température: -12.7 °C -17.8 °C -13.5 °C -12.9 °C
Point de rosée: -13 °C -17.8 °C -14.1 °C -13.7 °C
Humidité: 97 % Humidity % 83 % 91 %
Vitesse du vent: 0 km/h 0 km/h 0 km/h 0.8 km/h
Rafale de vent: 7.7 km/h 0 km/h - -
Vent:Calm - - West
Pression baro: 35082.3 hPa 0 hPa 34923.2 hPa -
Précipitations: 0 mm      
Historical Graphs
 
 
Les données tabulaires pour février 22, 2019
Temps Température Point de rosée Pression baro Vent Vitesse du vent Rafale de vent Humidité Les précipitations (horaires)
-17.8 °C -17.8 °C 0 hPa Calm     Humidity % 0 mm
00:04 -12 °C -13.6 °C 34923.2 hPa Calm   10.3 km/h 83 % 0 mm
00:09 -12 °C -13.6 °C 34923.2 hPa Calm   10.3 km/h 83 % 0 mm
00:14 -12 °C -13.6 °C 34923.2 hPa Calm   10.3 km/h 83 % 0 mm
00:19 -12 °C -13.6 °C 34923.2 hPa Calm   7.7 km/h 83 % 0 mm
00:24 -12 °C -13.6 °C 34933.4 hPa Calm   10.3 km/h 83 % 0 mm
00:29 -12.1 °C -13.6 °C 34933.4 hPa Calm   10.3 km/h 83 % 0 mm
00:34 -12.1 °C -13.6 °C 34933.4 hPa Calm   10.3 km/h 83 % 0 mm
00:39 -12.1 °C -13.6 °C 34933.4 hPa Calm   10.3 km/h 83 % 0 mm
00:44 -12.1 °C -13.5 °C 34933.4 hPa Calm   10.3 km/h 84 % 0 mm
00:49 -12.1 °C -13.5 °C 34933.4 hPa WSW 7.7 km/h 7.7 km/h 84 % 0 mm
00:54 -12.1 °C -13.5 °C 34933.4 hPa Calm   10.3 km/h 84 % 0 mm
00:59 -12.1 °C -13.6 °C 34933.4 hPa West 15.6 km/h 10.3 km/h 84 % 0 mm
01:04 -12.1 °C -13.6 °C 34933.4 hPa West 2.6 km/h 15.6 km/h 84 % 0 mm
01:09 -12.1 °C -13.6 °C 34933.4 hPa Calm   15.6 km/h 84 % 0 mm
01:14 -12.1 °C -13.6 °C 34933.4 hPa WSW 2.6 km/h 15.6 km/h 84 % 0 mm
01:19 -12.1 °C -13.6 °C 34946.9 hPa Calm   15.6 km/h 84 % 0 mm
01:24 -12.1 °C -13.6 °C 34946.9 hPa West 5.1 km/h 7.7 km/h 84 % 0 mm
01:29 -12.1 °C -13.6 °C 34946.9 hPa Calm   10.3 km/h 84 % 0 mm
01:34 -12.1 °C -13.6 °C 34946.9 hPa West 7.7 km/h 10.3 km/h 84 % 0 mm
01:39 -12.2 °C -13.6 °C 34946.9 hPa Calm   15.6 km/h 84 % 0 mm
01:44 -12.2 °C -13.6 °C 34946.9 hPa WNW 2.6 km/h 15.6 km/h 84 % 0 mm
01:49 -12.2 °C -13.6 °C 34946.9 hPa Calm   15.6 km/h 84 % 0 mm
01:54 -12.2 °C -13.6 °C 34946.9 hPa Calm   10.3 km/h 84 % 0 mm
01:59 -12.2 °C -13.6 °C 34946.9 hPa Calm   10.3 km/h 84 % 0 mm
02:04 -12.2 °C -13.6 °C 34946.9 hPa Calm   12.9 km/h 84 % 0 mm
02:09 -12.2 °C -13.7 °C 34946.9 hPa Calm   12.9 km/h 84 % 0 mm
02:14 -12.3 °C -13.7 °C 34946.9 hPa Calm   12.9 km/h 84 % 0 mm
02:19 -12.3 °C -13.7 °C 34946.9 hPa Calm     84 % 0 mm
02:24 -12.3 °C -13.7 °C 34946.9 hPa Calm   7.7 km/h 84 % 0 mm
02:29 -12.3 °C -13.7 °C 34946.9 hPa Calm   7.7 km/h 85 % 0 mm
02:34 -12.3 °C -13.7 °C 34946.9 hPa Calm   7.7 km/h 85 % 0 mm
02:39 -12.3 °C -13.7 °C 34946.9 hPa Calm   7.7 km/h 85 % 0 mm
02:44 -12.4 °C -13.7 °C 34946.9 hPa Calm   5.1 km/h 85 % 0 mm
02:49 -12.4 °C -13.7 °C 34946.9 hPa Calm   10.3 km/h 85 % 0 mm
02:54 -12.4 °C -13.7 °C 34946.9 hPa Calm   10.3 km/h 85 % 0 mm
02:59 -12.4 °C -13.8 °C 34946.9 hPa Calm   10.3 km/h 85 % 0 mm
03:04 -12.5 °C -13.8 °C 34946.9 hPa Calm     85 % 0 mm
03:09 -12.6 °C -13.9 °C 34957.1 hPa Calm     85 % 0 mm
03:14 -12.6 °C -13.9 °C 34957.1 hPa Calm     85 % 0 mm
03:19 -12.6 °C -13.8 °C 34946.9 hPa Calm     86 % 0 mm
03:24 -12.6 °C -13.8 °C 34946.9 hPa Calm     86 % 0 mm
03:29 -12.7 °C -13.9 °C 34946.9 hPa Calm     86 % 0 mm
03:34 -12.7 °C -13.8 °C 34946.9 hPa Calm     87 % 0 mm
03:39 -12.7 °C -13.8 °C 34946.9 hPa Calm     87 % 0 mm
03:44 -12.7 °C -13.8 °C 34946.9 hPa Calm   2.6 km/h 87 % 0 mm
03:49 -12.8 °C -13.9 °C 34957.1 hPa Calm   2.6 km/h 87 % 0 mm
03:54 -12.8 °C -13.9 °C 34957.1 hPa Calm   2.6 km/h 88 % 0 mm
03:59 -12.8 °C -13.9 °C 34957.1 hPa Calm   2.6 km/h 88 % 0 mm
04:04 -12.8 °C -13.9 °C 34957.1 hPa Calm     88 % 0 mm
04:09 -12.9 °C -13.9 °C 34957.1 hPa Calm   7.7 km/h 88 % 0 mm
04:14 -12.9 °C -13.8 °C 34967.2 hPa Calm   7.7 km/h 89 % 0 mm
04:19 -12.9 °C -13.8 °C 34967.2 hPa Calm   7.7 km/h 89 % 0 mm
04:24 -12.9 °C -13.9 °C 34967.2 hPa Calm   5.1 km/h 89 % 0 mm
04:29 -12.9 °C -13.9 °C 34967.2 hPa WNW 5.1 km/h 7.7 km/h 89 % 0 mm
04:34 -12.9 °C -13.9 °C 34967.2 hPa Calm   10.3 km/h 89 % 0 mm
04:39 -12.9 °C -13.9 °C 34967.2 hPa NW 2.6 km/h 10.3 km/h 89 % 0 mm
04:44 -13 °C -13.8 °C 34967.2 hPa Calm   10.3 km/h 90 % 0 mm
04:49 -13 °C -13.8 °C 34967.2 hPa Calm   10.3 km/h 90 % 0 mm
04:54 -13 °C -13.8 °C 34967.2 hPa Calm   10.3 km/h 90 % 0 mm
04:59 -13.1 °C -13.9 °C 34967.2 hPa Calm   12.9 km/h 90 % 0 mm
05:04 -13.1 °C -13.9 °C 34967.2 hPa Calm   12.9 km/h 90 % 0 mm
05:09 -13.1 °C -13.9 °C 34967.2 hPa Calm   12.9 km/h 90 % 0 mm
05:14 -13.1 °C -13.9 °C 34980.8 hPa Calm   10.3 km/h 90 % 0 mm
05:19 -13.1 °C -13.9 °C 34980.8 hPa Calm   7.7 km/h 91 % 0 mm
05:24 -13.1 °C -13.9 °C 34967.2 hPa Calm     91 % 0 mm
05:29 -13.1 °C -13.9 °C 34967.2 hPa Calm     91 % 0 mm
05:34 -13.1 °C -13.9 °C 34967.2 hPa Calm     91 % 0 mm
05:39 -13.2 °C -13.9 °C 34967.2 hPa SW 5.1 km/h   91 % 0 mm
05:44 -13.2 °C -13.9 °C 34967.2 hPa Calm   5.1 km/h 91 % 0 mm
05:49 -13.2 °C -13.9 °C 34980.8 hPa Calm   5.1 km/h 91 % 0 mm
05:54 -13.2 °C -13.9 °C 34980.8 hPa Calm   5.1 km/h 91 % 0 mm
05:59 -13.2 °C -13.9 °C 34980.8 hPa Calm     91 % 0 mm
06:04 -13.2 °C -13.8 °C 34980.8 hPa Calm     92 % 0 mm
06:09 -13.2 °C -13.8 °C 34980.8 hPa Calm     92 % 0 mm
06:14 -13.2 °C -13.9 °C 34980.8 hPa Calm     92 % 0 mm
06:19 -13.2 °C -13.9 °C 34980.8 hPa Calm     92 % 0 mm
06:24 -13.2 °C -13.9 °C 34980.8 hPa Calm     92 % 0 mm
06:29 -13.2 °C -13.9 °C 34990.9 hPa Calm     92 % 0 mm
06:34 -13.2 °C -13.9 °C 34990.9 hPa Calm     92 % 0 mm
06:39 -13.2 °C -13.8 °C 34990.9 hPa Calm     93 % 0 mm
06:44 -13.2 °C -13.8 °C 34990.9 hPa Calm     93 % 0 mm
06:49 -13.3 °C -13.9 °C 34990.9 hPa Calm   5.1 km/h 93 % 0 mm
06:54 -13.3 °C -13.9 °C 34990.9 hPa NW 7.7 km/h 5.1 km/h 93 % 0 mm
06:59 -13.3 °C -13.9 °C 35001.1 hPa Calm   10.3 km/h 93 % 0 mm
07:04 -13.4 °C -14 °C 35001.1 hPa Calm   10.3 km/h 93 % 0 mm
07:09 -13.4 °C -14 °C 35001.1 hPa Calm   10.3 km/h 93 % 0 mm
07:14 -13.4 °C -14 °C 35001.1 hPa Calm   7.7 km/h 93 % 0 mm
07:19 -13.4 °C -14.1 °C 35001.1 hPa Calm   7.7 km/h 93 % 0 mm
07:24 -13.4 °C -14.1 °C 35001.1 hPa Calm   7.7 km/h 93 % 0 mm
07:29 -13.4 °C -13.9 °C 35001.1 hPa Calm     94 % 0 mm
07:34 -13.4 °C -13.9 °C 35001.1 hPa Calm     94 % 0 mm
07:39 -13.4 °C -13.9 °C 35001.1 hPa Calm     94 % 0 mm
07:44 -13.4 °C -13.9 °C 35014.6 hPa Calm     94 % 0 mm
07:49 -13.4 °C -13.9 °C 35014.6 hPa Calm     94 % 0 mm
07:54 -13.5 °C -14 °C 35014.6 hPa Calm     94 % 0 mm
07:59 -13.5 °C -14 °C 35014.6 hPa Calm   5.1 km/h 94 % 0 mm
08:04 -13.5 °C -14 °C 35024.8 hPa Calm   5.1 km/h 94 % 0 mm
08:09 -13.5 °C -14 °C 35024.8 hPa Calm   5.1 km/h 94 % 0 mm
08:14 -13.5 °C -14 °C 35024.8 hPa Calm   2.6 km/h 94 % 0 mm
08:19 -13.5 °C -13.9 °C 35024.8 hPa Calm   2.6 km/h 95 % 0 mm
08:24 -13.5 °C -13.9 °C 35024.8 hPa West 5.1 km/h 2.6 km/h 95 % 0 mm
08:29 -13.5 °C -13.9 °C 35024.8 hPa SW 7.7 km/h 10.3 km/h 95 % 0 mm
08:34 -13.5 °C -13.9 °C 35024.8 hPa Calm   10.3 km/h 95 % 0 mm
08:39 -13.4 °C -13.9 °C 35038.3 hPa West 7.7 km/h 10.3 km/h 95 % 0 mm
08:44 -13.4 °C -13.9 °C 35038.3 hPa Calm   10.3 km/h 95 % 0 mm
08:49 -13.4 °C -13.9 °C 35038.3 hPa Calm   7.7 km/h 95 % 0 mm
08:54 -13.4 °C -13.9 °C 35038.3 hPa Calm   7.7 km/h 95 % 0 mm
08:59 -13.4 °C -13.9 °C 35038.3 hPa Calm     95 % 0 mm
09:04 -13.4 °C -13.8 °C 35038.3 hPa Calm     96 % 0 mm
09:09 -13.4 °C -13.8 °C 35038.3 hPa Calm   2.6 km/h 96 % 0 mm
09:14 -13.4 °C -13.8 °C 35038.3 hPa Calm   5.1 km/h 96 % 0 mm
09:19 -13.4 °C -13.9 °C 35048.5 hPa Calm   5.1 km/h 95 % 0 mm
09:24 -13.4 °C -13.8 °C 35048.5 hPa Calm   5.1 km/h 96 % 0 mm
09:29 -13.4 °C -13.8 °C 35048.5 hPa Calm     96 % 0 mm
09:34 -13.4 °C -13.8 °C 35048.5 hPa Calm     96 % 0 mm
09:39 -13.4 °C -13.8 °C 35048.5 hPa Calm     96 % 0 mm
09:44 -13.4 °C -13.7 °C 35048.5 hPa Calm     96 % 0 mm
09:49 -13.4 °C -13.7 °C 35048.5 hPa Calm     96 % 0 mm
09:54 -13.4 °C -13.7 °C 35048.5 hPa Calm     96 % 0 mm
09:59 -13.3 °C -13.7 °C 35048.5 hPa Calm     96 % 0 mm
10:04 -13.3 °C -13.7 °C 35048.5 hPa Calm     96 % 0 mm
10:09 -13.3 °C -13.6 °C 35048.5 hPa Calm     96 % 0 mm
10:14 -13.2 °C -13.6 °C 35048.5 hPa Calm     96 % 0 mm
10:19 -13.2 °C -13.6 °C 35048.5 hPa Calm     96 % 0 mm
10:24 -13.2 °C -13.6 °C 35058.6 hPa Calm   5.1 km/h 96 % 0 mm
10:29 -13.2 °C -13.6 °C 35058.6 hPa Calm   5.1 km/h 96 % 0 mm
10:34 -13.2 °C -13.5 °C 35058.6 hPa WNW 5.1 km/h 5.1 km/h 96 % 0 mm
10:39 -13.2 °C -13.5 °C 35058.6 hPa WNW 2.6 km/h 7.7 km/h 96 % 0 mm
10:44 -13.2 °C -13.5 °C 35058.6 hPa Calm   7.7 km/h 96 % 0 mm
10:49 -13.2 °C -13.5 °C 35058.6 hPa Calm   7.7 km/h 96 % 0 mm
10:54 -13.2 °C -13.5 °C 35072.2 hPa Calm   5.1 km/h 96 % 0 mm
10:59 -13.2 °C -13.5 °C 35072.2 hPa WNW 7.7 km/h 2.6 km/h 96 % 0 mm
11:04 -13.2 °C -13.5 °C 35072.2 hPa WNW 5.1 km/h 7.7 km/h 96 % 0 mm
11:09 -13.2 °C -13.5 °C 35072.2 hPa Calm   7.7 km/h 96 % 0 mm
11:14 -13.2 °C -13.5 °C 35072.2 hPa Calm   7.7 km/h 96 % 0 mm
11:19 -13.2 °C -13.5 °C 35072.2 hPa Calm   7.7 km/h 96 % 0 mm
11:24 -13.2 °C -13.5 °C 35072.2 hPa Calm   7.7 km/h 96 % 0 mm
11:29 -13.2 °C -13.5 °C 35072.2 hPa Calm   7.7 km/h 96 % 0 mm
11:34 -13.2 °C -13.4 °C 35082.3 hPa Calm     97 % 0 mm
11:39 -13.2 °C -13.4 °C 35072.2 hPa Calm     97 % 0 mm
11:44 -13.2 °C -13.4 °C 35082.3 hPa Calm     97 % 0 mm
11:49 -13.1 °C -13.3 °C 35082.3 hPa Calm     97 % 0 mm
11:54 -13.1 °C -13.3 °C 35082.3 hPa Calm     97 % 0 mm
11:59 -13 °C -13.2 °C 35082.3 hPa Calm     97 % 0 mm
12:04 -12.9 °C -13.2 °C 35082.3 hPa Calm     97 % 0 mm
12:09 -12.9 °C -13.2 °C 35082.3 hPa Calm     97 % 0 mm
12:14 -12.9 °C -13.2 °C 35082.3 hPa Calm     97 % 0 mm
12:19 -12.9 °C -13.2 °C 35082.3 hPa Calm     97 % 0 mm
12:24 -12.9 °C -13.2 °C 35082.3 hPa Calm   2.6 km/h 97 % 0 mm
12:29 -12.9 °C -13.2 °C 35082.3 hPa Calm   2.6 km/h 97 % 0 mm
12:34 -12.8 °C -13.1 °C 35082.3 hPa Calm   2.6 km/h 97 % 0 mm
12:39 -12.8 °C -13.1 °C 35082.3 hPa Calm     97 % 0 mm
12:44 -12.8 °C -13.1 °C 35082.3 hPa WNW 7.7 km/h 5.1 km/h 97 % 0 mm
12:49 -12.8 °C -13.1 °C 35082.3 hPa Calm   7.7 km/h 97 % 0 mm
12:54 -12.8 °C -13.1 °C 35082.3 hPa WNW 5.1 km/h 7.7 km/h 97 % 0 mm
12:59 -12.8 °C -13.1 °C 35082.3 hPa Calm   7.7 km/h 97 % 0 mm
13:04 -12.8 °C -13.1 °C 35082.3 hPa Calm   10.3 km/h 97 % 0 mm
13:09 -12.8 °C -13.1 °C 35082.3 hPa Calm   10.3 km/h 97 % 0 mm
13:14 -12.8 °C -13.1 °C 35082.3 hPa NW 5.1 km/h 10.3 km/h 97 % 0 mm
13:19 -12.7 °C -13 °C 35082.3 hPa Calm   7.7 km/h 97 % 0 mm
13:24 -12.7 °C -13 °C 35082.3 hPa Calm   7.7 km/h 97 % 0 mm
Météo
Compliments of Weather Underground - 2 mb

Script développé par  Jim McMurry - jmcmurry@mwt.net Adapté pour le modèle par  Wim van der Kuil - Leuven-Template.eu

Vous trouverez notre info météo Également à:

Weather Underground

Équipement que nous utilisons:

Station de Météo
Davis VP2

Programme Météo
Meteohub

Ordinateur Météo
RaspberryPI 2

Provider
OVH

Davis VP2

Meteohub

RaspberryPI 2

OVH